Ephrata, WA
on Sunday, December 16, 2012

Sunday
Previous Day Next Day
Daily Summary
 ActualAverageRecord
Temperature
Mean Temperature °F 27°F  
Max Temperature 34°F 33°F 59°F (1999)
Min Temperature 18°F 21°F -10°F (1964)
Degree Days
Heating Degree Days 39 38  
Month to date heating degree days 471 585  
Since 1 July heating degree days 1731 2004  
Cooling Degree Days 0 0  
Month to date cooling degree days 0 0  
Year to date cooling degree days 837 772  
Moisture
Dew Point 25°F   
Average Humidity 93    
Maximum Humidity 100    
Minimum Humidity 85    
Precipitation
Precipitation 0.32 in 0.05 in 0.50 in (1987)
Month to date precipitation 1.19 0.65  
Year to date precipitation 8.14 7.26  
Wind
Wind Speed 6 mph   
Max Wind Speed 18 mph   
Max Gust Speed 23 mph   
Visibility 3 miles   
Events Fog , Snow   

Key: T is trace of precipitation, MM is missing value
Source: NWS Daily Summary
Time(PST)TemperatureDew PointHumidity Pressure Visibility Wind DirectionWind SpeedGust SpeedPrecipitationEvents Conditions
12:27 AM 28.4°F 28.4°F 100% 29.62 in 1.0 miles SSW 4.6 mph - N/A   Overcast
12:53 AM 28.9°F 28.0°F 96% 29.66 in 0.5 miles SSW 3.5 mph - N/A Fog Light Freezing Fog
1:37 AM 26.6°F 26.6°F 100% 29.63 in 0.2 miles Calm Calm - N/A Fog Light Freezing Fog
2:23 AM 23.0°F 23.0°F 100% 29.65 in 0.2 miles Calm Calm - N/A Fog Light Freezing Fog
2:53 AM 21.0°F 19.9°F 96% 29.71 in 0.2 miles Calm Calm - N/A Fog Light Freezing Fog
3:14 AM 21.2°F 19.4°F 93% 29.67 in 0.2 miles Calm Calm - N/A Fog Light Freezing Fog
3:29 AM 21.2°F 19.4°F 93% 29.68 in 0.2 miles North 3.5 mph - N/A Fog Light Freezing Fog
3:53 AM 21.9°F 19.0°F 89% 29.73 in 0.2 miles North 3.5 mph - N/A Fog Light Freezing Fog
4:53 AM 18.0°F 15.1°F 88% 29.74 in 0.2 miles North 3.5 mph - N/A Fog Light Freezing Fog
5:29 AM 19.4°F 15.8°F 86% 29.70 in 0.5 miles NNW 6.9 mph - N/A Fog Light Freezing Fog
5:46 AM 21.2°F 17.6°F 86% 29.70 in 0.2 miles North 4.6 mph - N/A Fog Light Freezing Fog
5:53 AM 21.9°F 19.0°F 89% 29.75 in 0.2 miles North 4.6 mph - N/A Fog Light Freezing Fog
6:35 AM 23.0°F 19.4°F 86% 29.71 in 0.8 miles NNE 5.8 mph - N/A   Mist
6:50 AM 24.8°F 21.2°F 86% 29.70 in 0.2 miles NNE 5.8 mph - N/A Fog Light Freezing Fog
6:53 AM 24.1°F 21.0°F 88% 29.75 in 0.2 miles NNE 4.6 mph - N/A Fog Light Freezing Fog
7:45 AM 24.8°F 21.2°F 86% 29.71 in 0.5 miles NNE 4.6 mph - N/A Fog Light Freezing Fog
7:53 AM 24.1°F 21.9°F 91% 29.76 in 0.2 miles Calm Calm - N/A Fog Light Freezing Fog
8:12 AM 24.8°F 21.2°F 86% 29.72 in 0.5 miles North 4.6 mph - N/A Fog Light Freezing Fog
8:25 AM 24.8°F 21.2°F 86% 29.72 in 2.0 miles North 4.6 mph - N/A   Overcast
8:33 AM 24.8°F 21.2°F 86% 29.71 in 7.0 miles North 3.5 mph - N/A   Overcast
8:53 AM 25.0°F 21.9°F 88% 29.76 in 7.0 miles NE 3.5 mph - N/A   Overcast
9:53 AM 25.0°F 23.0°F 92% 29.77 in 4.0 miles NNW 5.8 mph - N/A   Overcast
10:01 AM 26.6°F 24.8°F 93% 29.73 in 5.0 miles North 5.8 mph - N/A   Overcast
10:53 AM 27.0°F 25.0°F 92% 29.75 in 10.0 miles NNE 6.9 mph - N/A   Overcast
11:16 AM 28.4°F 26.6°F 93% 29.71 in 9.0 miles North 8.1 mph - N/A   Overcast
11:53 AM 28.0°F 25.0°F 88% 29.74 in 10.0 miles North 8.1 mph - N/A   Mostly Cloudy
12:53 PM 28.9°F 26.1°F 89% 29.70 in 10.0 miles North 11.5 mph - N/A   Mostly Cloudy
1:53 PM 28.0°F 26.1°F 92% 29.66 in 10.0 miles North 8.1 mph - N/A   Partly Cloudy
2:53 PM 28.9°F 26.1°F 89% 29.64 in 10.0 miles North 6.9 mph - N/A   Overcast
3:22 PM 28.4°F 26.6°F 93% 29.58 in 1.8 miles North 6.9 mph - 0.00 in Snow Light Snow
3:32 PM 30.2°F 26.6°F 86% 29.57 in 1.0 miles North 8.1 mph - 0.00 in Snow Light Snow
3:41 PM 30.2°F 28.4°F 93% 29.56 in 1.2 miles North 6.9 mph - 0.00 in Snow Light Snow
3:53 PM 30.0°F 28.0°F 92% 29.60 in 1.8 miles North 6.9 mph - 0.00 in Snow Light Snow
4:07 PM 30.2°F 28.4°F 93% 29.54 in 0.8 miles North 5.8 mph - 0.01 in Snow Light Snow
4:25 PM 30.2°F 28.4°F 93% 29.51 in 1.5 miles NNE 4.6 mph - 0.01 in Snow Light Snow
4:53 PM 30.9°F 30.0°F 96% 29.54 in 1.0 miles North 3.5 mph - 0.03 in Snow Light Snow
5:53 PM 32.0°F 32.0°F 100% 29.49 in 1.2 miles Calm Calm - 0.06 in Snow Light Snow
6:53 PM 33.1°F 32.0°F 96% 29.42 in 1.8 miles SE 8.1 mph - 0.10 in Snow Light Snow
6:57 PM 33.8°F 32.0°F 93% 29.38 in 3.0 miles SE 9.2 mph - 0.01 in Snow Light Snow
7:53 PM 33.1°F 30.9°F 92% 29.32 in 7.0 miles ESE 16.1 mph - 0.05 in Snow Light Snow
8:05 PM 33.8°F 32.0°F 93% 29.27 in 1.8 miles ESE 15.0 mph - 0.01 in Snow Light Snow
8:29 PM 32.0°F 32.0°F 100% 29.25 in 1.2 miles ESE 13.8 mph - 0.03 in Snow Light Snow
8:53 PM 32.0°F 32.0°F 100% 29.26 in 1.2 miles ESE 17.3 mph - 0.05 in Snow Light Snow
9:08 PM 33.8°F 32.0°F 93% 29.20 in 3.0 miles ESE 15.0 mph - 0.00 in Snow Light Snow
9:53 PM 34.0°F 32.0°F 92% 29.21 in 7.0 miles ESE 8.1 mph - 0.03 in Snow Light Snow
10:53 PM 34.0°F 32.0°F 92% 29.18 in 10.0 miles North 5.8 mph - 0.00 in   Overcast
11:53 PM 34.0°F 32.0°F 92% 29.16 in 10.0 miles North 3.5 mph - N/A   Overcast
Moon Phase
Dec. 16 Dec. 20 Dec. 28 Jan. 04 Jan. 11
Sunrise:07:39 AM (PST) Moon Rise:10:03 AM (PST)12/16
Sunset:04:08 PM (PST) Moon Set:08:42 PM (PST)12/16

Copyright © 2014 The Weather Underground, Inc.